Temp_Advection
nan nan nan nan nan nan nan nan nan nan nan nan nan nan nan nan nan nan nan nan nan nan nan nan nan nan nan nan nan nan nan nan nan nan nan nan nan nan nan nan nan nan nan nan
nan 0 -0 0 0 -0 -0 -0 -0 -0 0 0 0 -0 -0 -0 -0 -0 -0 0 0 0 0 0 0 0 0 0 0 0 0 0 0 -0 0 0 0 0 1 0 0 0 0 nan
nan -0 0 0 0 0 0 -0 0 0 0 -0 0 0 0 0 -0 -0 -0 0 0 0 0 0 0 0 0 0 0 0 0 0 0 0 0 0 0 0 0 0 0 0 0 nan
nan -0 0 -0 0 0 0 0 0 0 0 0 0 0 0 0 0 0 0 0 0 0 0 0 0 0 0 0 -0 0 0 0 0 0 0 0 0 0 0 0 0 0 0 nan
nan -0 -0 -0 -0 -0 -0 0 0 -0 -0 -0 -0 -0 0 -0 0 0 0 0 0 0 0 0 0 0 -0 0 0 -0 -0 -0 -0 0 0 0 0 0 0 0 0 0 0 nan
nan 0 0 -0 0 0 0 -0 -1 -0 -0 -0 -0 -0 -0 -0 -0 -0 -0 0 0 0 0 0 0 0 0 -0 0 0 0 -0 -0 -0 0 0 0 0 0 0 0 0 0 nan
nan 0 -0 -0 -0 0 -0 -0 -1 -0 -1 -1 -0 -0 -1 -0 -1 -0 -0 -0 -0 -0 -0 -0 -0 0 0 -0 -0 0 0 0 -0 0 0 0 0 0 0 0 0 0 0 nan
nan 0 0 0 -0 -0 0 0 -0 -0 -0 -1 -1 -1 -1 -0 -1 -1 -1 -0 -0 -0 -0 -0 -0 -0 -0 -0 -0 -0 -0 0 0 -0 0 0 0 0 0 0 0 0 0 nan
nan -0 -0 0 -0 0 -0 -0 -0 -0 -0 -0 -1 -1 -1 -1 -1 -1 -1 -1 -1 -0 -0 0 -0 -0 -0 0 -0 -0 -0 -0 0 -0 -0 -0 0 0 0 0 0 0 0 nan
nan -0 -0 -0 0 -0 0 0 0 -0 0 -0 -0 -0 -1 -1 -1 -1 -1 -1 -1 -1 -1 -0 -0 -0 -0 0 -0 -0 -0 0 -0 0 0 0 0 0 -0 -0 0 0 0 nan
nan -1 -1 -0 0 -0 -0 0 0 -0 0 0 -0 -0 -0 -0 -0 -0 -1 -1 -1 -1 -1 -0 -0 -0 -0 -0 -0 -0 0 0 -0 -0 -0 -0 0 0 0 0 0 0 0 nan
nan 0 -0 -0 -0 -0 -0 -0 -0 0 -0 -0 0 -0 -0 -0 -0 -0 -0 -0 -0 -1 -1 -1 -1 -0 -0 -0 -0 -0 -0 -0 0 0 0 -0 -0 -0 -0 0 0 0 0 nan
nan -0 -0 -0 -0 -0 -0 -0 -0 -0 0 -0 -0 0 -0 -0 0 -0 -0 -0 -0 -0 -0 -1 -1 -0 -0 -0 -0 -0 -0 0 0 0 0 0 -0 -0 0 0 1 0 -0 nan
nan 0 -0 -0 -0 -0 -0 -0 -0 -0 -0 -0 -0 -0 -0 -0 -0 0 -0 -0 -0 -0 -0 -0 -1 -0 -0 -1 -1 -0 -0 -0 0 0 -0 -0 0 0 0 0 -0 -0 0 nan
nan -0 0 -0 -0 -0 -0 -0 -0 -0 -0 -0 -0 -0 -0 -0 -0 -0 0 -0 -0 -1 -1 -0 -0 -0 -0 -0 -0 -0 -0 -0 -0 -0 0 0 0 -0 -0 -0 -0 -0 -0 nan
nan -0 -0 -0 -0 -0 -0 -0 -0 -0 -0 -0 -0 -0 -0 -0 -0 -0 0 0 -0 -0 -1 -1 -1 -0 -0 -0 -0 -0 -0 -0 -0 -0 -0 -0 -0 0 0 -0 -0 0 -0 nan
nan -0 -0 -0 -0 -0 -0 -0 -0 -0 -0 -0 -0 -0 -0 -0 -0 -0 -0 0 -0 -0 -0 -0 -1 -0 -0 -0 -0 -0 -0 -0 0 0 -0 -0 -0 -0 0 0 -0 -0 -0 nan
nan -0 -0 -0 -0 -1 -1 -0 -1 -0 -0 -0 -0 -0 -0 -0 -0 -0 -0 -0 -0 -0 -0 -0 -0 -0 -0 -0 -1 -0 -0 -0 0 0 -0 -0 -0 0 -0 -0 -0 -0 0 nan
nan -0 -0 -1 -0 -0 -1 -1 -1 -1 -1 -1 -0 -1 -0 -0 -0 -0 -0 -0 -0 -0 -0 -0 -0 -0 -0 -0 -0 -0 -0 -0 -0 0 0 0 0 -0 -0 -0 -0 -0 0 nan
nan -0 -1 -1 -0 -1 -0 -1 -0 -1 -1 -1 -1 -1 -1 -0 -0 -0 -0 -0 -0 -0 -0 -0 -0 -0 -0 -0 -0 -0 -0 -0 -0 0 0 0 0 -0 -0 -0 -0 0 -0 nan
nan -0 -0 -0 -1 -0 -0 -0 -0 -0 -1 -1 -1 -1 -1 -1 -1 -0 -0 -0 -0 -0 -0 -0 -0 -0 -0 -0 -0 -0 -0 -0 -0 -0 -0 -0 0 0 -0 -0 0 -0 -0 nan
nan 0 -0 -0 -0 -0 -0 -0 -0 -0 -0 -0 -0 -0 -1 -0 -0 -0 -0 -0 -0 -0 -0 -0 -1 -0 -0 -0 -0 -0 -0 -0 -1 -1 -1 -0 -0 -0 0 0 0 0 -0 nan
nan -0 0 -0 -0 -0 -0 -0 -1 -0 -0 -0 -0 -0 -0 -1 -0 -0 -1 -0 -1 -0 -0 -0 -1 -1 -0 -0 -0 -1 -1 -1 -1 -1 -0 -0 -0 -0 -0 0 0 0 -0 nan
nan -0 0 0 0 -0 -0 -0 -0 -0 -0 -0 -0 -0 -0 -0 -0 -0 -0 -0 -0 -1 -0 -0 -1 -1 -1 -1 -1 -0 -0 -0 -0 -0 -0 -1 -1 -1 -0 0 0 0 0 nan
nan 0 0 0 -0 -0 0 -0 -0 -0 -0 0 -0 -0 -0 0 -0 -0 -0 -0 -0 -0 -0 -0 -0 -1 -1 -0 -0 -0 -0 -0 -0 -0 -0 -1 -1 -0 -0 -0 -0 0 -0 nan
nan 0 0 0 0 0 0 0 0 -0 -0 0 0 0 -0 0 0 0 -0 0 0 -0 -0 -0 -0 0 -0 -0 -0 -0 -0 -0 -0 -0 -0 -0 -0 -0 -0 -0 -0 -0 -0 nan
nan nan nan nan nan nan nan nan nan nan nan nan nan nan nan nan nan nan nan nan nan nan nan nan nan nan nan nan nan nan nan nan nan nan nan nan nan nan nan nan nan nan nan nan
Wind_Speed
12 7 9 9 14 18 18 11 5 4 3 9 11 10 12 12 13 12 14 16 15 15 15 14 14 14 14 14 14 14 13 12 12 13 15 16 18 19 22 26 27 25 24 24
2 6 4 12 17 10 13 9 4 5 2 8 16 14 13 15 13 15 14 16 16 14 15 13 12 11 9 9 9 9 8 9 9 9 10 10 12 14 15 17 19 20 22 21
2 4 3 6 18 8 2 6 3 8 7 13 13 14 13 11 15 17 18 16 15 15 14 12 11 9 8 7 6 6 7 8 8 8 8 8 8 8 10 12 13 14 17 17
2 3 6 3 9 6 3 2 4 8 10 13 17 20 3 10 17 21 21 18 15 12 11 11 9 8 7 6 5 5 6 6 6 6 6 7 6 7 8 8 9 10 10 10
3 2 2 5 14 7 2 1 15 15 16 21 24 17 3 11 23 24 18 16 13 13 12 10 9 8 7 6 5 4 4 4 5 5 5 6 6 6 6 7 8 7 8 8
4 5 3 3 16 13 2 2 27 25 19 22 21 9 6 29 25 22 16 13 12 11 11 10 9 8 6 5 4 3 3 3 3 3 4 4 4 5 6 6 7 7 7 8
5 2 3 2 21 7 6 7 30 22 24 23 11 16 27 28 26 22 19 15 12 12 12 9 9 9 8 7 5 3 2 2 2 2 2 2 2 3 5 5 6 6 7 8
1 4 5 16 11 4 7 21 25 19 24 25 24 25 23 23 24 23 21 18 14 11 10 9 10 9 8 7 7 5 4 3 2 1 1 1 1 2 3 3 4 4 4 5
1 4 8 21 10 13 22 24 23 23 27 26 25 24 26 24 22 22 20 19 16 14 12 9 10 11 11 5 9 7 6 5 6 4 3 1 0 2 2 3 4 4 5 5
6 2 9 35 6 26 29 26 25 25 27 26 22 27 25 22 23 21 20 18 16 16 14 12 9 12 12 10 12 13 10 9 9 7 7 5 4 2 2 2 4 5 6 6
5 12 24 6 30 36 30 29 26 26 26 26 25 25 22 22 21 20 17 18 18 17 16 14 12 11 11 12 14 15 15 13 13 11 10 9 7 6 5 3 4 5 7 5
6 29 18 29 38 30 28 32 30 25 29 27 22 22 19 18 19 17 19 19 17 16 16 15 14 12 12 12 14 16 16 17 16 16 14 14 12 10 8 8 7 8 10 3
19 29 30 34 28 29 31 29 28 25 27 25 19 18 16 18 19 18 16 15 15 15 15 15 15 13 12 13 15 15 16 16 16 19 17 18 17 15 13 11 11 12 13 12
26 29 28 25 33 31 27 28 28 25 23 21 18 16 14 16 19 20 15 15 16 18 18 17 15 13 13 13 14 15 16 16 18 20 21 20 19 18 17 16 16 14 14 12
31 31 29 30 33 29 29 29 29 27 25 24 18 17 16 18 18 21 17 15 18 19 19 16 14 12 12 12 13 13 15 16 17 19 20 21 22 22 22 21 20 18 17 17
34 31 28 29 29 30 30 28 27 26 25 23 23 21 19 18 18 20 19 15 20 22 22 18 14 11 9 9 10 11 12 14 15 17 18 22 23 23 24 23 22 20 20 19
33 32 34 32 30 31 27 27 27 24 23 24 24 22 19 17 17 17 16 15 20 23 19 16 17 12 10 9 11 11 11 10 11 15 18 18 20 22 24 24 24 23 22 20
27 30 30 29 29 29 28 27 26 25 25 24 22 22 21 18 16 15 15 18 23 20 14 13 12 10 13 15 13 10 10 12 12 13 15 17 19 21 22 22 22 23 23 22
30 29 27 27 28 28 28 26 28 24 20 20 20 21 17 16 14 12 16 18 19 18 13 10 9 12 13 12 12 13 13 11 11 11 11 11 13 18 20 22 22 22 21 21
31 28 28 28 29 27 30 26 18 20 26 29 22 19 16 13 9 13 16 18 15 18 15 8 16 16 10 10 7 9 9 10 10 12 13 13 14 16 16 17 20 22 23 23
31 31 31 29 27 28 24 21 15 28 31 21 18 16 16 17 17 18 15 13 15 13 7 17 15 13 18 9 7 8 11 10 9 10 10 13 17 17 17 16 16 20 20 21
34 32 32 30 31 27 24 19 17 30 21 25 16 16 18 16 14 13 13 15 15 14 17 13 17 12 7 12 17 20 20 19 19 19 18 17 15 16 16 16 18 17 17 18
31 30 29 30 31 25 23 20 28 20 23 16 20 13 16 23 21 19 19 15 15 12 13 19 15 13 19 23 24 23 21 20 20 22 23 23 20 17 18 15 13 14 15 17
29 28 30 32 28 25 24 30 30 19 20 15 19 15 22 22 17 10 10 14 12 13 20 17 17 15 19 20 16 15 14 14 13 11 13 18 21 18 17 17 16 14 13 13
28 26 31 31 27 28 24 32 27 24 22 17 21 18 22 15 12 11 13 16 17 14 19 22 21 16 15 15 15 14 13 12 10 10 10 11 12 13 13 15 17 16 16 14
28 27 28 28 25 25 28 35 26 25 22 20 17 26 19 15 13 11 13 19 16 16 21 21 18 16 16 16 15 15 13 11 10 9 10 9 7 10 11 11 12 14 17 18
27 25 27 29 28 23 32 32 25 25 19 21 23 25 18 15 13 13 17 15 20 21 19 16 15 16 17 17 17 15 13 11 9 10 10 10 10 9 8 10 11 13 14 16
Wind_Direction
135 144 70 54 30 24 41 31 59 320 42 356 340 330 332 349 352 359 13 8 9 11 14 19 29 36 36 38 42 47 47 49 62 73 80 84 92 101 105 103 97 98 98 95
293 252 64 45 28 27 32 22 38 351 328 339 324 329 338 350 356 352 357 357 357 5 11 12 18 22 26 39 50 56 58 66 66 62 57 71 86 98 111 116 109 106 100 97
359 19 73 15 7 2 9 24 324 22 320 320 330 338 340 1 9 360 352 355 351 353 358 3 4 4 15 20 41 59 67 70 71 77 87 96 103 110 111 116 121 124 117 106
182 30 45 271 354 316 312 298 0 356 346 339 331 324 320 2 358 352 344 347 346 342 343 345 354 359 3 8 9 36 54 65 71 79 84 90 97 105 117 125 135 137 136 127
86 57 303 356 353 338 5 13 21 356 349 346 343 338 305 347 338 334 338 338 330 327 338 334 345 349 354 10 10 10 28 49 57 69 86 89 92 104 118 125 127 131 132 133
28 87 87 295 334 353 169 255 360 346 346 340 342 351 333 331 341 341 342 333 325 322 323 327 333 335 337 353 15 9 7 17 33 49 70 91 104 110 112 111 114 116 118 124
4 43 295 288 346 338 54 307 330 336 338 329 324 311 313 330 333 337 339 338 331 312 312 318 313 316 321 324 341 357 354 359 12 29 50 69 81 98 94 94 100 107 111 113
355 17 352 357 353 48 309 319 323 326 335 327 326 325 326 329 332 337 339 342 337 320 309 303 298 300 301 309 302 316 316 323 314 313 99 87 65 60 88 107 101 92 94 96
258 271 309 337 329 358 341 323 329 321 330 329 324 328 328 328 333 337 338 338 337 330 323 309 290 286 283 295 277 279 283 288 288 291 296 300 176 140 168 155 141 134 119 117
352 301 313 322 330 339 339 334 329 325 327 333 323 327 330 329 330 333 339 340 336 331 324 318 302 284 280 264 258 266 269 271 270 270 267 264 261 251 219 176 167 157 149 145
256 294 324 337 323 323 329 331 327 331 331 331 326 328 330 330 333 335 338 334 330 326 320 319 309 296 286 274 262 259 262 260 262 262 262 260 260 265 260 235 212 186 163 146
306 313 312 307 318 326 325 330 332 327 333 329 325 325 326 332 335 335 331 328 326 326 320 315 308 300 289 279 269 262 260 258 259 261 260 261 257 254 256 253 236 213 192 258
297 317 313 313 319 324 324 328 331 325 329 327 324 327 322 325 334 327 324 325 326 329 329 323 310 306 295 278 273 270 264 261 256 255 252 255 258 259 261 260 247 239 246 249
329 326 317 323 321 327 327 328 330 328 329 335 328 327 326 330 338 344 337 338 334 329 323 317 313 310 302 288 278 274 270 262 256 251 251 249 252 254 255 251 252 249 247 241
332 333 322 322 325 330 331 334 331 334 338 339 336 330 322 315 328 339 331 322 324 324 323 314 301 303 304 300 288 275 270 265 257 255 252 251 250 249 249 250 251 252 248 243
333 329 330 330 329 328 332 334 332 332 335 337 338 330 322 315 306 321 332 319 324 331 329 322 312 302 302 305 300 285 272 270 268 261 254 251 251 249 249 249 250 249 247 246
331 334 335 331 332 332 334 335 333 335 334 333 333 333 324 325 315 317 327 325 326 325 322 316 307 301 296 298 301 298 290 280 268 257 258 254 254 254 252 250 251 251 249 246
338 333 335 333 333 336 336 335 333 330 329 332 332 331 329 324 316 319 318 325 332 325 331 319 308 324 296 290 289 285 292 286 282 271 267 261 258 257 258 256 252 250 248 243
342 340 343 343 344 340 338 340 339 337 341 339 333 329 329 329 320 312 318 324 332 330 343 335 332 316 316 301 288 284 286 285 275 274 278 276 267 260 255 255 254 251 247 243
345 347 346 348 351 348 336 344 348 353 352 345 340 333 335 335 326 315 321 324 328 333 336 344 324 327 335 328 319 298 289 274 269 267 264 267 270 270 270 263 258 252 249 246
347 348 352 351 349 347 347 350 347 351 346 345 354 347 338 328 327 323 324 326 336 349 324 321 324 341 345 321 309 300 291 296 292 282 280 270 263 267 265 267 264 261 255 250
346 350 351 348 346 349 355 354 338 332 339 339 346 336 334 341 345 337 330 330 331 341 314 315 327 345 322 295 299 298 292 284 279 275 276 278 280 260 262 264 266 265 262 259
347 349 349 349 349 350 352 352 341 349 340 347 353 340 348 340 327 323 322 331 326 340 313 319 331 327 309 303 298 296 292 286 276 265 260 264 269 273 252 252 263 264 260 257
350 353 346 348 348 356 354 348 348 345 349 352 351 326 335 335 344 5 347 332 334 324 309 320 334 322 303 301 303 302 296 292 285 277 258 256 257 263 249 237 243 253 256 260
354 348 346 351 354 355 343 346 350 349 354 351 344 344 345 349 341 345 325 332 333 317 316 323 324 323 317 318 314 310 303 294 281 261 256 265 259 258 247 240 239 242 248 246
353 348 347 352 360 349 344 345 347 352 350 351 346 346 347 346 340 324 323 332 333 327 318 320 322 324 326 323 323 319 308 292 280 257 246 252 255 245 244 239 238 241 246 249
349 348 345 354 5 350 346 345 350 351 353 2 335 336 335 337 337 330 330 333 342 343 338 333 328 324 326 327 329 323 313 297 280 257 246 247 246 247 249 255 255 253 252 255
Height
1503 1504 1507 1510 1505 1500 1495 1498 1501 1504 1503 1498 1494 1490 1486 1483 1481 1477 1474 1473 1470 1466 1463 1462 1459 1456 1455 1453 1451 1451 1450 1451 1452 1453 1451 1449 1446 1448 1449 1447 1450 1451 1450 1452
1509 1504 1507 1509 1505 1508 1505 1505 1505 1503 1501 1499 1495 1491 1487 1484 1481 1479 1475 1473 1471 1468 1466 1463 1462 1461 1461 1460 1458 1457 1458 1457 1457 1454 1451 1451 1452 1454 1455 1454 1455 1457 1455 1458
1507 1514 1515 1511 1512 1511 1514 1512 1512 1508 1507 1499 1493 1490 1487 1486 1483 1481 1477 1473 1472 1470 1468 1465 1464 1463 1462 1462 1461 1460 1460 1458 1457 1457 1457 1457 1459 1460 1458 1457 1458 1460 1462 1462
1516 1519 1536 1518 1515 1512 1512 1514 1513 1509 1505 1501 1496 1490 1487 1485 1482 1479 1478 1474 1472 1471 1470 1468 1466 1465 1463 1462 1462 1461 1459 1459 1460 1460 1458 1459 1461 1458 1459 1461 1462 1463 1464 1464
1520 1553 1534 1522 1516 1516 1516 1513 1511 1509 1505 1501 1496 1489 1487 1486 1484 1481 1477 1475 1474 1472 1470 1469 1466 1465 1464 1463 1462 1461 1460 1460 1459 1460 1460 1460 1461 1462 1464 1464 1462 1462 1464 1466
1535 1543 1539 1529 1519 1514 1514 1509 1510 1511 1506 1502 1497 1492 1489 1486 1482 1478 1475 1474 1472 1470 1469 1466 1464 1465 1465 1464 1463 1462 1462 1462 1462 1461 1460 1461 1463 1465 1464 1463 1463 1463 1465 1466
1544 1541 1534 1529 1521 1515 1525 1525 1514 1511 1508 1503 1500 1498 1491 1485 1481 1478 1474 1471 1469 1467 1466 1466 1464 1463 1463 1463 1462 1462 1463 1462 1462 1462 1462 1462 1462 1464 1460 1461 1463 1464 1466 1466
1552 1552 1539 1528 1523 1527 1530 1523 1517 1511 1507 1502 1498 1492 1488 1484 1479 1474 1471 1468 1466 1466 1464 1463 1462 1462 1462 1462 1460 1461 1461 1462 1463 1463 1462 1462 1462 1461 1460 1463 1462 1462 1462 1463
1549 1539 1531 1531 1528 1527 1524 1519 1514 1510 1505 1500 1495 1490 1485 1480 1477 1473 1470 1467 1464 1462 1461 1461 1460 1460 1460 1460 1459 1459 1461 1461 1462 1461 1461 1462 1462 1462 1465 1465 1465 1466 1465 1466
1547 1535 1532 1526 1526 1524 1521 1516 1511 1507 1502 1497 1493 1488 1483 1479 1475 1472 1469 1466 1463 1461 1459 1459 1458 1457 1457 1457 1457 1456 1457 1459 1460 1460 1461 1462 1462 1463 1464 1464 1465 1466 1467 1470
1544 1535 1531 1524 1525 1520 1515 1512 1508 1503 1499 1494 1489 1485 1481 1477 1473 1470 1467 1465 1462 1459 1457 1456 1455 1454 1453 1452 1453 1453 1454 1456 1457 1458 1458 1459 1460 1461 1461 1463 1464 1466 1467 1470
1544 1538 1534 1525 1521 1516 1512 1507 1502 1497 1493 1489 1485 1481 1478 1474 1472 1468 1465 1462 1459 1457 1454 1452 1451 1450 1449 1448 1448 1448 1449 1450 1452 1453 1454 1456 1457 1459 1459 1461 1462 1464 1466 1467
1542 1535 1529 1521 1516 1512 1507 1503 1498 1493 1490 1484 1481 1477 1474 1471 1468 1464 1462 1459 1456 1453 1451 1449 1447 1446 1445 1443 1443 1443 1444 1445 1447 1448 1450 1451 1452 1453 1455 1457 1458 1462 1465 1466
1536 1529 1521 1516 1510 1506 1502 1497 1493 1489 1485 1480 1476 1473 1471 1468 1465 1461 1458 1455 1453 1450 1448 1445 1443 1442 1440 1439 1439 1439 1439 1440 1441 1444 1444 1446 1448 1450 1452 1453 1454 1456 1458 1458
1530 1525 1519 1511 1506 1501 1497 1491 1486 1482 1478 1474 1472 1469 1466 1464 1461 1458 1455 1452 1450 1447 1444 1441 1440 1439 1437 1435 1434 1435 1434 1435 1437 1437 1439 1440 1442 1444 1446 1448 1449 1451 1452 1454
1523 1518 1512 1508 1501 1496 1491 1486 1482 1478 1474 1470 1467 1464 1462 1459 1457 1455 1451 1449 1446 1442 1438 1435 1433 1433 1432 1431 1430 1430 1430 1430 1430 1431 1433 1434 1435 1438 1439 1441 1443 1444 1447 1449
1518 1510 1506 1501 1497 1491 1487 1483 1478 1474 1470 1467 1463 1460 1457 1454 1452 1450 1447 1445 1442 1439 1435 1433 1430 1429 1428 1427 1427 1426 1426 1426 1426 1426 1426 1428 1428 1430 1433 1434 1437 1438 1440 1443
1520 1514 1507 1501 1494 1488 1484 1479 1475 1470 1466 1462 1459 1455 1452 1449 1447 1445 1443 1440 1437 1433 1431 1428 1426 1426 1424 1423 1423 1422 1421 1421 1420 1421 1421 1422 1423 1425 1426 1427 1429 1431 1433 1436
1515 1509 1503 1498 1492 1486 1481 1476 1471 1467 1463 1458 1454 1451 1448 1445 1443 1441 1439 1436 1433 1429 1427 1425 1424 1422 1420 1419 1418 1417 1417 1416 1416 1417 1417 1418 1418 1418 1420 1421 1422 1424 1426 1428
1511 1506 1500 1495 1489 1484 1478 1472 1468 1464 1460 1456 1451 1447 1444 1442 1439 1437 1436 1433 1430 1427 1424 1422 1420 1419 1417 1415 1414 1413 1412 1412 1412 1412 1413 1414 1414 1414 1414 1415 1416 1417 1419 1421
1507 1502 1497 1491 1486 1481 1476 1470 1466 1462 1457 1453 1448 1445 1442 1439 1437 1434 1432 1429 1427 1425 1422 1421 1419 1416 1414 1411 1410 1410 1409 1409 1409 1408 1408 1408 1409 1409 1409 1410 1411 1411 1412 1414
1505 1499 1494 1489 1484 1478 1473 1469 1465 1460 1454 1451 1446 1443 1440 1437 1434 1431 1430 1428 1425 1424 1420 1418 1417 1415 1411 1409 1407 1405 1404 1404 1403 1403 1403 1402 1402 1402 1403 1403 1404 1405 1405 1406
1504 1498 1493 1487 1481 1476 1471 1467 1463 1456 1453 1448 1445 1441 1439 1435 1431 1428 1425 1424 1422 1421 1416 1415 1414 1413 1408 1404 1401 1399 1397 1395 1395 1395 1395 1395 1396 1396 1396 1398 1398 1399 1399 1400
1501 1496 1491 1485 1479 1473 1467 1464 1459 1454 1450 1447 1443 1440 1436 1431 1428 1426 1423 1421 1419 1418 1413 1411 1409 1408 1403 1398 1395 1393 1391 1390 1389 1388 1388 1388 1388 1389 1390 1391 1393 1394 1395 1395
1499 1494 1489 1482 1476 1470 1466 1461 1455 1451 1447 1443 1440 1437 1433 1429 1427 1424 1422 1419 1415 1413 1409 1406 1402 1400 1396 1393 1390 1388 1386 1385 1384 1383 1383 1383 1383 1384 1384 1386 1387 1389 1390 1390
1497 1493 1488 1483 1476 1470 1466 1459 1453 1449 1444 1441 1437 1434 1430 1427 1424 1422 1419 1416 1412 1409 1405 1401 1397 1394 1391 1389 1386 1383 1381 1380 1379 1379 1380 1380 1380 1380 1380 1381 1382 1384 1385 1385
1497 1493 1487 1480 1475 1470 1466 1459 1452 1447 1443 1439 1435 1432 1428 1425 1422 1419 1416 1413 1409 1404 1400 1396 1393 1390 1387 1384 1382 1379 1377 1376 1375 1375 1376 1376 1377 1377 1378 1378 1379 1380 1380 1380